EW5222 Weather Reports


time (UTC)temp
F
wind
direction
speed
knots
gust
knots
rain 1hr
in
rain 24hr
in
rain mn
in
humidity
%
barometer
mb
20260510180030 63 319 0.9 3.5 0.00 0.00 0.00 63 1020.2
20260510174531 62 0 0.0 2.6 0.00 0.00 0.00 63 1020.4
20260510173028 62 315 0.0 3.5 0.00 0.00 0.00 66 1020.4
20260510171542 62 0 0.9 7.8 0.00 0.00 0.00 62 1020.2
20260510170034 62 355 1.7 7.0 0.00 0.00 0.00 58 1019.7
20260510164530 62 61 1.7 4.3 0.00 0.01 0.00 63 1019.8
20260510163036 62 0 1.7 7.0 0.00 0.01 0.00 65 1019.7
20260510161530 61 84 1.7 7.8 0.00 0.01 0.00 67 1019.4
20260510160034 61 60 1.7 7.8 0.00 0.01 0.00 68 1019.4
20260510154534 60 316 1.7 7.8 0.00 0.01 0.00 70 1019.2
20260510153038 60 42 1.7 7.8 0.00 0.01 0.00 71 1018.9
20260510151530 61 0 1.7 9.6 0.00 0.01 0.00 70 1018.4
20260510150030 61 0 1.7 7.8 0.00 0.01 0.00 70 1018.3
20260510144528 61 69 2.6 7.8 0.00 0.01 0.00 71 1018.1
20260510143030 61 60 1.7 8.7 0.00 0.01 0.00 72 1018.3
20260510141533 61 0 1.7 5.2 0.00 0.01 0.00 74 1018.3
20260510140030 61 304 0.0 5.2 0.00 0.01 0.00 76 1018.5
20260510134530 61 31 0.0 2.6 0.00 0.01 0.00 75 1018.4
20260510133029 61 0 0.0 4.3 0.00 0.01 0.00 75 1018.4
20260510131529 60 0 0.9 3.5 0.00 0.01 0.00 75 1018.0
20260510130029 60 352 0.0 2.6 0.00 0.01 0.00 76 1017.4
20260510124528 60 0 0.0 3.5 0.00 0.01 0.00 76 1017.0
20260510123034 60 39 0.0 3.5 0.00 0.01 0.00 77 1016.3
20260510121531 59 0 0.0 2.6 0.00 0.01 0.00 79 1015.9
20260510120032 59 53 0.0 3.5 0.00 0.01 0.00 79 1015.2
20260510114531 59 88 0.0 3.5 0.00 0.01 0.00 80 1015.0
20260510113038 59 0 0.0 0.9 0.00 0.01 0.00 80 1014.4
20260510111530 59 0 0.0 7.8 0.00 0.01 0.00 80 1014.4
20260510110045 59 0 0.0 0.0 0.00 0.01 0.00 79 1013.8
20260510104528 59 0 0.0 1.7 0.00 0.01 0.00 79 1013.6
20260510103029 60 0 0.0 0.0 0.00 0.01 0.00 78 1013.8
20260510101527 60 0 0.0 1.7 0.00 0.01 0.00 77 1013.7
20260510100039 60 0 0.0 0.9 0.00 0.01 0.00 76 1013.7
20260510094538 61 0 0.0 0.0 0.00 0.01 0.00 75 1013.5
20260510093028 61 0 0.0 0.0 0.00 0.01 0.00 75 1013.4
20260510091529 62 0 0.0 0.0 0.00 0.01 0.00 75 1013.2
20260510090030 62 0 0.0 0.0 0.00 0.01 0.00 73 1013.0
20260510084532 63 0 0.0 0.0 0.00 0.01 0.00 72 1012.4
20260510083030 64 49 0.0 1.7 0.00 0.01 0.00 72 1012.1
20260510081538 65 0 0.0 1.7 0.00 0.01 0.00 70 1012.1
20260510080049 65 0 0.0 1.7 0.00 0.01 0.00 68 1011.9
20260510074532 67 120 0.0 1.7 0.00 0.01 0.00 67 1011.9
20260510073039 67 0 0.0 0.0 0.00 0.01 0.00 64 1011.8
20260510071528 68 0 0.0 0.0 0.00 0.01 0.00 62 1011.6
20260510070042 69 0 0.0 1.7 0.00 0.01 0.00 61 1011.5
20260510064529 69 131 0.9 5.2 0.00 0.01 0.00 58 1011.6
20260510063034 69 126 0.9 3.5 0.00 0.01 0.00 57 1011.7
20260510061531 69 115 0.9 3.5 0.00 0.01 0.00 58 1011.8
20260510060038 70 193 1.7 3.5 0.00 0.01 0.00 57 1011.5
20260510054530 70 134 0.9 4.3 0.00 0.01 0.00 56 1011.2
20260510053030 69 180 0.9 6.1 0.00 0.01 0.00 56 1011.4
20260510051528 67 159 4.3 10.4 0.00 0.01 0.00 62 1011.7
20260510050029 66 0 0.0 0.0 0.00 0.01 0.00 67 1012.9
20260510044528 66 0 0.0 0.0 0.00 0.01 0.01 68 1013.3
20260510043029 66 0 0.0 2.6 0.00 0.01 0.01 66 1013.1
20260510041528 66 0 0.0 0.0 0.00 0.01 0.01 66 1013.0
20260510040029 66 0 0.0 0.0 0.00 0.01 0.01 66 1013.1
20260510034528 66 0 0.0 0.9 0.00 0.01 0.01 65 1012.8
20260510033041 67 0 0.0 0.0 0.00 0.01 0.01 65 1012.4
20260510031531 67 0 0.0 0.0 0.00 0.01 0.01 61 1012.0
20260510030032 67 0 0.0 0.0 0.00 0.01 0.01 59 1011.7
20260510024528 68 0 0.0 0.0 0.00 0.01 0.01 57 1011.5
20260510023030 69 0 0.0 0.0 0.00 0.01 0.01 55 1011.0
20260510021606 71 0 0.0 0.0 0.00 0.01 0.01 52 1010.8
20260510020031 72 0 0.0 0.0 0.00 0.01 0.01 49 1010.5
20260510014545 74 0 0.0 0.0 0.00 0.01 0.01 45 1010.2
20260510013033 76 0 0.0 0.0 0.00 0.01 0.01 43 1009.9
20260510011530 77 0 0.0 1.7 0.00 0.01 0.01 40 1009.7
20260510010042 78 0 0.0 1.7 0.00 0.01 0.01 37 1009.5
20260510004531 79 128 0.9 3.5 0.00 0.01 0.01 36 1009.2
20260510003030 80 115 1.7 6.1 0.00 0.01 0.01 35 1009.0
20260510001533 80 136 2.6 6.1 0.00 0.01 0.01 32 1008.8
20260510000030 81 140 1.7 6.1 0.00 0.01 0.01 31 1008.8
20260509234533 81 134 3.5 7.8 0.00 0.01 0.01 29 1008.9
20260509233034 82 135 3.5 9.6 0.00 0.01 0.01 29 1008.9
20260509231530 82 147 1.7 8.7 0.00 0.01 0.01 32 1008.9
20260509230036 83 138 4.3 8.7 0.00 0.01 0.01 32 1009.1
20260509224532 84 204 2.6 9.6 0.00 0.02 0.01 33 1009.0
20260509223030 84 111 2.6 7.8 0.00 0.02 0.01 32 1009.1
20260509221529 84 0 0.9 8.7 0.00 0.02 0.01 33 1009.1
20260509220031 84 138 1.7 8.7 0.00 0.02 0.01 28 1009.1
20260509214529 84 134 3.5 10.4 0.00 0.02 0.01 28 1009.4
20260509213035 85 209 1.7 6.1 0.00 0.02 0.01 30 1009.4
20260509211528 86 211 2.6 7.8 0.00 0.02 0.01 28 1009.5
20260509210032 87 144 1.7 7.8 0.00 0.02 0.01 32 1009.6
20260509204530 88 198 3.5 7.0 0.00 0.03 0.01 31 1009.7
20260509203032 88 194 1.7 6.1 0.00 0.03 0.01 28 1009.9
20260509201531 87 210 4.3 7.0 0.00 0.03 0.01 31 1010.2
20260509200033 87 207 5.2 8.7 0.00 0.03 0.01 31 1010.1
20260509194543 86 218 3.5 8.7 0.00 0.03 0.01 32 1010.3
20260509193034 85 261 2.6 6.1 0.00 0.03 0.01 35 1010.4
20260509191532 84 121 0.9 8.7 0.00 0.03 0.01 38 1010.3
20260509190030 83 198 4.3 9.6 0.00 0.03 0.01 43 1010.4
20260509184533 82 211 6.1 9.6 0.00 0.03 0.01 39 1010.6
20260509183032 81 200 3.5 8.7 0.00 0.03 0.01 41 1010.8
20260509181531 81 196 5.2 9.6 0.00 0.03 0.01 47 1011.0